Palos Park, Illinois, United States (60464)
Lat: 41.67N, Lon: 87.83W
Wx Zone: ILZ014
Local Info
Past Weather Observations for Sunday, July 27, 2014

NOTE: This archive is for the closest National Weather Service station to Palos Park. Information may differ from the station used for current weather conditions.

Click here for Long-term Archive

Time Weather Temperature Dewpoint Humidity Pressure Winds Precip Visibility
23:51
Mostly Cloudy
66°F / 19°C 54°F / 12°C 64% 29.92 in
(1013 mb)
N 19.6 mph
(N 32 kph)
- 10SM
23:30
Overcast
66°F / 19°C 54°F / 12°C 64% 29.92 in
(1013 mb)
N 19.6 mph
(N 32 kph)
- 10SM
22:51
Mostly Cloudy
66°F / 19°C 57°F / 14°C 73% 29.92 in
(1013 mb)
N 17.3 mph
(N 28 kph)
- 10SM
21:51
Overcast
68°F / 20°C 63°F / 17°C 83% 29.89 in
(1012 mb)
NNE 15 mph
(NNE 24 kph)
- 10SM
21:27
Mostly Cloudy
68°F / 20°C 63°F / 17°C 83% 29.89 in
(1012 mb)
N 12.7 mph
(N 20 kph)
- 10SM
20:51
Mostly Cloudy
70°F / 21°C 63°F / 17°C 78% 29.86 in
(1011 mb)
NW 9.2 mph
(NW 15 kph)
0.04 in
(1.02 mm)
10SM
19:51
Mostly Cloudy
73°F / 23°C 57°F / 14°C 57% 29.83 in
(1010 mb)
NW 15 mph
(NW 24 kph)
- 10SM
18:51
Mostly Cloudy
75°F / 24°C 55°F / 13°C 50% 29.8 in
(1009 mb)
NW 25.3 mph
(NW 41 kph)
- 10SM
17:51
Partly Cloudy
77°F / 25°C 55°F / 13°C 47% 29.77 in
(1008 mb)
NW 21.9 mph
(NW 35 kph)
- 10SM
16:51
Mostly Cloudy
79°F / 26°C 55°F / 13°C 45% 29.77 in
(1008 mb)
NW 21.9 mph
(NW 35 kph)
- 10SM
15:51
Mostly Cloudy
82°F / 28°C 55°F / 13°C 40% 29.74 in
(1007 mb)
NW 21.9 mph
(NW 35 kph)
- 10SM
14:51
Mostly Cloudy
84°F / 29°C 55°F / 13°C 37% 29.71 in
(1006 mb)
W 20.7 mph
(W 33 kph)
- 10SM
13:51
Mostly Cloudy
86°F / 30°C 57°F / 14°C 38% 29.71 in
(1006 mb)
W 27.6 mph
(W 44 kph)
- 10SM
12:51
Mostly Cloudy
88°F / 31°C 55°F / 13°C 33% 29.71 in
(1006 mb)
WNW 21.9 mph
(WNW 35 kph)
- 10SM
11:51
Partly Cloudy
88°F / 31°C 57°F / 14°C 35% 29.71 in
(1006 mb)
W 17.3 mph
(W 28 kph)
- 10SM
10:51
Partly Cloudy
86°F / 30°C 63°F / 17°C 46% 29.71 in
(1006 mb)
SSW 16.1 mph
(SSW 26 kph)
- 10SM
09:51
Partly Cloudy
86°F / 30°C 66°F / 19°C 52% 29.74 in
(1007 mb)
SSW 11.5 mph
(SSW 19 kph)
- 10SM
08:51
Partly Cloudy
82°F / 28°C 68°F / 20°C 62% 29.74 in
(1007 mb)
SSW 9.2 mph
(SSW 15 kph)
- 10SM
07:51
Partly Cloudy
81°F / 27°C 72°F / 22°C 74% 29.74 in
(1007 mb)
SSW 8.1 mph
(SSW 13 kph)
- 10SM
06:51
Partly Cloudy
75°F / 24°C 72°F / 22°C 89% 29.77 in
(1008 mb)
W 10.4 mph
(W 17 kph)
- 7SM
05:51
Partly Cloudy
Fog And Mist
73°F / 23°C 72°F / 22°C 94% 29.77 in
(1008 mb)
WNW 6.9 mph
(WNW 11 kph)
- 5SM
05:25
Partly Cloudy
Fog And Mist
73°F / 23°C 70°F / 21°C 89% 29.77 in
(1008 mb)
W 5.8 mph
(W 9 kph)
- 3SM
04:51
Partly Cloudy
Fog And Mist
72°F / 22°C 70°F / 21°C 94% 29.77 in
(1008 mb)
W 4.6 mph
(W 7 kph)
- 4SM
03:51
Partly Cloudy
Fog And Mist
72°F / 22°C 70°F / 21°C 94% 29.77 in
(1008 mb)
SSW 5.8 mph
(SSW 9 kph)
- 4SM
02:51
Partly Cloudy
Fog And Mist
73°F / 23°C 70°F / 21°C 89% 29.8 in
(1009 mb)
SW 6.9 mph
(SW 11 kph)
- 4SM
01:51
Partly Cloudy
Fog And Mist
73°F / 23°C 72°F / 22°C 94% 29.8 in
(1009 mb)
Calm - 4SM
00:51
Partly Cloudy
Fog And Mist
75°F / 24°C 72°F / 22°C 89% 29.8 in
(1009 mb)
SW 6.9 mph
(SW 11 kph)
- 6SM
Time Weather Temperature Dewpoint Humidity Pressure Winds Precip Visibility


Weather for websites

WeatherForYou.com, LLC is not responsible for any damages or problems caused by this service. Current weather conditions are obtained from the closest station including government and personal stations which may have varying degrees of accuracy. Weather forecasts are derived from the NOAA NDFD. Like all things, this site belongs to Jesus Christ... He just trusts me to maintain it. If you have any questions or comments email webmaster@weatherforyou.com

Copyright © 2014, WeatherForYou.com LLC. All rights reserved.